FENGYUN 1C DEB, 38122

Orbit data source: Space-Track

FENGYUN 1C DEB, 38122 is space debris in SSO originally from a launch on Mon, 10 May 1999 UTC launched from the Taiyaun Space Center, China (TSC). Fengyun 1C debris stems from the Chinese weather satellite Fengyun-1C, which was intentionally destroyed by a Chinese anti-satellite missile in 2007. This event dramatically increased the amount of space debris, with thousands of trackable fragments posing hazards to satellites and human spaceflight. The Fengyun 1C debris cloud has become a focal point in discussions about space sustainability and the need for international regulations to prevent the creation of new debris.

Loading next visibility...
Identifier
38122, 1999-025EPT
Orbit
SSO
Country
Flag of CNCN / PRC
Related business
Manufacturer
Unknown
Mission
Spacecraft
Bus & Motor
Unknown
Mass
Unknown
Launch date (UTC)
1999-05-10 (27 years ago)
Launch vehicle
Unknown
Launch site
Taiyaun Space Center, China (TSC)
Object type
Payload
Rocket body
Debris
Shape & HBR
Unknown shape, 0.1 m
Radar Cross Section
Small (<0.1 m²)

Expand to show TLE details & history
Last TLE update: 1 day ago

TLE from 1 day ago
0 FENGYUN 1C DEB
1 38122U 99025EPT 26123.28932885  .00002638  00000-0  58261-3 0  9994
2 38122  98.3199 127.5054 0226781  88.5485 274.1670 14.43386303697807
Epoch: 2026-05-03T06:56Z
TLE epoch observation values (Epoch: 2026-05-03T06:56:38.012Z)
Latitude
-0.00007°
Longitude
162.15201°
Altitude
742.203 km
Speed
7.488 km/s
True Right ascension
08h 30m 01s
True Declination
0° 00' 00"
Sunlit
Object was in daylight at epoch
Visualization orbit readout
Latitude
Unknown
Longitude
Unknown
Altitude
Unknown
Speed
Unknown
Apparent Right ascension
Unknown
Apparent Declination
Unknown
Sunlit
N/A
Visualization observer readout
Local Sidereal Time
01:37:08
Azimuth
Unknown
Elevation
Unknown
Doppler factor
Unknown
Orbital elements
Apogee altitude
905.965 km
Perigee altitude
582.912 km
Semi-major axis
7,122.576 km
Eccentricity
0.02268
Inclination
98.3199°
RAAN
127.5054°
Arg. of periapsis
88.5485°
True anomaly
271.57069°
Mean anomaly
274.167°
Eccentric anomaly
272.86927°
Mean motion
3.61067 °/min
Orbital period
99.7 mins
BSTAR
0.00058261
Loading maneuver chart data...
Computing Atmospheric mass density...

Documentation

Showing up to 5 results
|